Time,TemperatureF,DewpointF,PressureIn,WindDirection,WindDirectionDegrees,WindSpeedMPH,WindSpeedGustMPH,Humidity,HourlyPrecipIn,Conditions,Clouds,dailyrainin,SolarRadiationWatts/m^2,SoftwareType,DateUTC
2013-08-24 00:07:00,58.7,57.0,30.14,North,360,0.0,-999.0,93,-99.99,,,0.00,0,weatherlink.com 1.10,2013-08-24 04:07:00,
2013-08-24 00:22:00,58.4,56.0,30.14,North,360,0.0,-999.0,93,-99.99,,,0.00,0,weatherlink.com 1.10,2013-08-24 04:22:00,
2013-08-24 00:37:00,58.2,56.0,30.15,North,360,0.0,-999.0,93,-99.99,,,0.00,0,weatherlink.com 1.10,2013-08-24 04:37:00,
2013-08-24 00:52:00,58.0,56.0,30.15,North,360,0.0,-999.0,93,-99.99,,,0.00,0,weatherlink.com 1.10,2013-08-24 04:52:00,
2013-08-24 01:07:00,57.8,56.0,30.15,North,360,0.0,-999.0,93,-99.99,,,0.00,0,weatherlink.com 1.10,2013-08-24 05:07:00,
2013-08-24 01:22:00,57.7,56.0,30.16,North,360,0.0,-999.0,94,-99.99,,,0.00,0,weatherlink.com 1.10,2013-08-24 05:22:00,
2013-08-24 01:37:00,57.7,56.0,30.16,North,360,0.0,-999.0,94,-99.99,,,0.00,0,weatherlink.com 1.10,2013-08-24 05:37:00,
2013-08-24 01:52:00,57.5,56.0,30.16,North,360,0.0,-999.0,94,-99.99,,,0.00,0,weatherlink.com 1.10,2013-08-24 05:52:00,
2013-08-24 02:07:00,57.2,56.0,30.16,North,360,0.0,-999.0,94,-99.99,,,0.00,0,weatherlink.com 1.10,2013-08-24 06:07:00,
2013-08-24 02:22:00,56.9,55.0,30.17,North,360,0.0,-999.0,94,-99.99,,,0.00,0,weatherlink.com 1.10,2013-08-24 06:22:00,
2013-08-24 02:37:00,56.6,55.0,30.17,North,360,0.0,-999.0,94,-99.99,,,0.00,0,weatherlink.com 1.10,2013-08-24 06:37:00,
2013-08-24 02:52:00,56.3,55.0,30.17,North,360,0.0,-999.0,94,-99.99,,,0.00,0,weatherlink.com 1.10,2013-08-24 06:52:00,
2013-08-24 03:07:00,56.1,54.0,30.18,North,360,0.0,-999.0,94,-99.99,,,0.00,0,weatherlink.com 1.10,2013-08-24 07:07:00,
2013-08-24 03:22:00,56.1,54.0,30.18,North,360,0.0,-999.0,94,-99.99,,,0.00,0,weatherlink.com 1.10,2013-08-24 07:22:00,
2013-08-24 03:37:00,56.2,55.0,30.19,North,360,0.0,-999.0,95,-99.99,,,0.00,0,weatherlink.com 1.10,2013-08-24 07:37:00,
2013-08-24 03:53:00,56.3,55.0,30.19,North,360,0.0,-999.0,95,-99.99,,,0.00,0,weatherlink.com 1.10,2013-08-24 07:53:00,
2013-08-24 04:08:00,56.1,55.0,30.20,North,360,0.0,-999.0,95,-99.99,,,0.00,0,weatherlink.com 1.10,2013-08-24 08:08:00,
2013-08-24 04:23:00,56.0,55.0,30.20,North,360,0.0,-999.0,95,-99.99,,,0.00,0,weatherlink.com 1.10,2013-08-24 08:23:00,
2013-08-24 04:38:00,55.8,54.0,30.20,North,360,0.0,-999.0,95,-99.99,,,0.00,0,weatherlink.com 1.10,2013-08-24 08:38:00,
2013-08-24 04:52:00,55.7,54.0,30.21,North,360,0.0,-999.0,95,-99.99,,,0.00,0,weatherlink.com 1.10,2013-08-24 08:52:00,
2013-08-24 05:07:00,55.5,54.0,30.21,North,360,0.0,-999.0,95,-99.99,,,0.00,0,weatherlink.com 1.10,2013-08-24 09:07:00,
2013-08-24 05:22:00,55.5,54.0,30.21,North,360,0.0,-999.0,95,-99.99,,,0.00,0,weatherlink.com 1.10,2013-08-24 09:22:00,
2013-08-24 05:37:00,55.4,54.0,30.22,North,360,0.0,-999.0,95,-99.99,,,0.00,0,weatherlink.com 1.10,2013-08-24 09:37:00,
2013-08-24 05:52:00,55.4,54.0,30.23,North,360,0.0,-999.0,95,-99.99,,,0.00,0,weatherlink.com 1.10,2013-08-24 09:52:00,
2013-08-24 06:07:00,55.4,54.0,30.23,North,360,1.0,-999.0,95,-99.99,,,0.00,0,weatherlink.com 1.10,2013-08-24 10:07:00,
2013-08-24 06:22:00,55.4,54.0,30.24,North,360,0.0,-999.0,95,-99.99,,,0.00,0,weatherlink.com 1.10,2013-08-24 10:22:00,
2013-08-24 06:37:00,55.4,54.0,30.25,North,360,0.0,-999.0,95,-99.99,,,0.00,7,weatherlink.com 1.10,2013-08-24 10:37:00,
2013-08-24 06:52:00,55.5,54.0,30.26,North,360,0.0,-999.0,96,-99.99,,,0.00,12,weatherlink.com 1.10,2013-08-24 10:52:00,
2013-08-24 07:07:00,55.5,54.0,30.26,North,360,0.0,-999.0,96,-99.99,,,0.00,18,weatherlink.com 1.10,2013-08-24 11:07:00,
2013-08-24 07:22:00,55.6,55.0,30.26,North,360,0.0,-999.0,96,-99.99,,,0.00,21,weatherlink.com 1.10,2013-08-24 11:22:00,
2013-08-24 07:37:00,55.8,55.0,30.27,North,360,0.0,-999.0,96,-99.99,,,0.00,26,weatherlink.com 1.10,2013-08-24 11:37:00,
2013-08-24 07:52:00,56.3,55.0,30.28,North,360,0.0,-999.0,96,-99.99,,,0.00,30,weatherlink.com 1.10,2013-08-24 11:52:00,
2013-08-24 08:07:00,56.9,56.0,30.29,North,360,2.0,-999.0,96,-99.99,,,0.00,37,weatherlink.com 1.10,2013-08-24 12:07:00,
2013-08-24 08:22:00,57.8,57.0,30.29,North,360,1.0,-999.0,96,-99.99,,,0.00,274,weatherlink.com 1.10,2013-08-24 12:22:00,
2013-08-24 08:37:00,59.4,58.0,30.29,North,360,0.0,-999.0,96,-99.99,,,0.00,316,weatherlink.com 1.10,2013-08-24 12:37:00,
2013-08-24 08:52:00,61.9,59.0,30.30,North,355,5.0,-999.0,90,-99.99,,,0.00,360,weatherlink.com 1.10,2013-08-24 12:52:00,
2013-08-24 09:07:00,64.9,58.0,30.30,North,350,0.0,-999.0,78,-99.99,,,0.00,429,weatherlink.com 1.10,2013-08-24 13:07:00,
2013-08-24 09:22:00,67.0,58.0,30.30,NNW,346,1.0,-999.0,73,-99.99,,,0.00,490,weatherlink.com 1.10,2013-08-24 13:22:00,
2013-08-24 09:37:00,68.2,57.0,30.31,NNW,340,3.0,-999.0,67,-99.99,,,0.00,531,weatherlink.com 1.10,2013-08-24 13:37:00,
2013-08-24 09:52:00,69.3,57.0,30.31,North,360,0.0,-999.0,66,-99.99,,,0.00,592,weatherlink.com 1.10,2013-08-24 13:52:00,
2013-08-24 10:07:00,70.4,58.0,30.32,NNW,348,2.0,-999.0,65,-99.99,,,0.00,635,weatherlink.com 1.10,2013-08-24 14:07:00,
2013-08-24 10:22:00,71.6,58.0,30.32,ESE,113,6.0,-999.0,62,-99.99,,,0.00,671,weatherlink.com 1.10,2013-08-24 14:22:00,
2013-08-24 10:37:00,72.1,57.0,30.32,NW,304,0.0,-999.0,59,-99.99,,,0.00,418,weatherlink.com 1.10,2013-08-24 14:37:00,
2013-08-24 10:52:00,71.4,57.0,30.32,North,350,5.0,-999.0,61,-99.99,,,0.00,768,weatherlink.com 1.10,2013-08-24 14:52:00,
2013-08-24 11:07:00,72.1,57.0,30.32,NE,35,2.0,-999.0,60,-99.99,,,0.00,738,weatherlink.com 1.10,2013-08-24 15:07:00,
2013-08-24 11:22:00,73.3,59.0,30.32,ESE,115,1.0,-999.0,61,-99.99,,,0.00,765,weatherlink.com 1.10,2013-08-24 15:22:00,
2013-08-24 11:37:00,73.4,58.0,30.32,North,355,1.0,-999.0,59,-99.99,,,0.00,780,weatherlink.com 1.10,2013-08-24 15:37:00,
2013-08-24 11:52:00,74.0,59.0,30.32,NNW,334,2.0,-999.0,59,-99.99,,,0.00,802,weatherlink.com 1.10,2013-08-24 15:52:00,
2013-08-24 12:07:00,74.4,58.0,30.32,NW,314,2.0,-999.0,56,-99.99,,,0.00,819,weatherlink.com 1.10,2013-08-24 16:07:00,
2013-08-24 12:22:00,75.3,59.0,30.32,North,360,4.0,-999.0,57,-99.99,,,0.00,830,weatherlink.com 1.10,2013-08-24 16:22:00,
2013-08-24 12:37:00,75.9,58.0,30.32,NW,321,7.0,-999.0,54,-99.99,,,0.00,837,weatherlink.com 1.10,2013-08-24 16:37:00,
2013-08-24 12:52:00,76.0,58.0,30.31,North,11,1.0,-999.0,54,-99.99,,,0.00,842,weatherlink.com 1.10,2013-08-24 16:52:00,
2013-08-24 13:07:00,76.2,59.0,30.31,NNW,333,7.0,-999.0,56,-99.99,,,0.00,844,weatherlink.com 1.10,2013-08-24 17:07:00,
2013-08-24 13:22:00,77.2,57.0,30.31,NE,40,1.0,-999.0,50,-99.99,,,0.00,840,weatherlink.com 1.10,2013-08-24 17:22:00,
2013-08-24 13:37:00,77.9,58.0,30.31,East,101,1.0,-999.0,51,-99.99,,,0.00,837,weatherlink.com 1.10,2013-08-24 17:37:00,
2013-08-24 13:52:00,79.2,58.0,30.31,NNW,331,4.0,-999.0,48,-99.99,,,0.00,842,weatherlink.com 1.10,2013-08-24 17:52:00,
2013-08-24 14:07:00,78.8,57.0,30.31,NNE,22,2.0,-999.0,48,-99.99,,,0.00,830,weatherlink.com 1.10,2013-08-24 18:07:00,
2013-08-24 14:22:00,77.7,58.0,30.31,ENE,62,0.0,-999.0,50,-99.99,,,0.00,898,weatherlink.com 1.10,2013-08-24 18:22:00,
2013-08-24 14:37:00,78.9,58.0,30.31,North,5,0.0,-999.0,49,-99.99,,,0.00,188,weatherlink.com 1.10,2013-08-24 18:37:00,
2013-08-24 14:52:00,78.2,57.0,30.31,ESE,121,1.0,-999.0,48,-99.99,,,0.00,629,weatherlink.com 1.10,2013-08-24 18:52:00,
2013-08-24 15:07:00,78.7,54.0,30.31,North,355,2.0,-999.0,43,-99.99,,,0.00,756,weatherlink.com 1.10,2013-08-24 19:07:00,
2013-08-24 15:22:00,79.5,56.0,30.31,North,355,4.0,-999.0,44,-99.99,,,0.00,731,weatherlink.com 1.10,2013-08-24 19:22:00,
2013-08-24 15:37:00,80.2,56.0,30.31,East,98,2.0,-999.0,44,-99.99,,,0.00,715,weatherlink.com 1.10,2013-08-24 19:37:00,
2013-08-24 15:52:00,79.7,58.0,30.31,NNW,338,5.0,-999.0,48,-99.99,,,0.00,721,weatherlink.com 1.10,2013-08-24 19:52:00,
2013-08-24 16:07:00,78.9,57.0,30.31,NNW,338,1.0,-999.0,48,-99.99,,,0.00,643,weatherlink.com 1.10,2013-08-24 20:07:00,
2013-08-24 16:22:00,79.8,57.0,30.31,SE,138,5.0,-999.0,46,-99.99,,,0.00,657,weatherlink.com 1.10,2013-08-24 20:22:00,
2013-08-24 16:37:00,80.0,59.0,30.31,NE,37,0.0,-999.0,49,-99.99,,,0.00,114,weatherlink.com 1.10,2013-08-24 20:37:00,
2013-08-24 16:53:00,80.6,59.0,30.31,NE,38,1.0,-999.0,48,-99.99,,,0.00,512,weatherlink.com 1.10,2013-08-24 20:53:00,
2013-08-24 17:08:00,81.1,59.0,30.31,NE,38,0.0,-999.0,47,-99.99,,,0.00,504,weatherlink.com 1.10,2013-08-24 21:08:00,
2013-08-24 17:23:00,80.5,58.0,30.31,South,178,1.0,-999.0,46,-99.99,,,0.00,406,weatherlink.com 1.10,2013-08-24 21:23:00,
2013-08-24 17:38:00,79.3,60.0,30.31,South,178,0.0,-999.0,52,-99.99,,,0.00,46,weatherlink.com 1.10,2013-08-24 21:38:00,
2013-08-24 17:53:00,77.4,60.0,30.31,South,178,0.0,-999.0,55,-99.99,,,0.00,49,weatherlink.com 1.10,2013-08-24 21:53:00,
2013-08-24 18:08:00,75.1,60.0,30.31,South,178,0.0,-999.0,59,-99.99,,,0.00,37,weatherlink.com 1.10,2013-08-24 22:08:00,
2013-08-24 18:23:00,73.4,60.0,30.31,South,178,0.0,-999.0,64,-99.99,,,0.00,35,weatherlink.com 1.10,2013-08-24 22:23:00,
2013-08-24 18:38:00,72.2,60.0,30.31,South,178,0.0,-999.0,66,-99.99,,,0.00,30,weatherlink.com 1.10,2013-08-24 22:38:00,
2013-08-24 18:52:00,71.0,60.0,30.31,South,178,0.0,-999.0,69,-99.99,,,0.00,26,weatherlink.com 1.10,2013-08-24 22:52:00,
2013-08-24 19:07:00,70.1,61.0,30.32,South,178,0.0,-999.0,72,-99.99,,,0.00,21,weatherlink.com 1.10,2013-08-24 23:07:00,
2013-08-24 19:22:00,69.0,61.0,30.32,South,178,0.0,-999.0,75,-99.99,,,0.00,14,weatherlink.com 1.10,2013-08-24 23:22:00,
2013-08-24 19:37:00,67.9,60.0,30.32,South,178,0.0,-999.0,77,-99.99,,,0.00,7,weatherlink.com 1.10,2013-08-24 23:37:00,
2013-08-24 19:53:00,66.8,60.0,30.33,South,178,0.0,-999.0,78,-99.99,,,0.00,0,weatherlink.com 1.10,2013-08-24 23:53:00,
2013-08-24 20:08:00,65.4,59.0,30.33,South,178,0.0,-999.0,79,-99.99,,,0.00,0,weatherlink.com 1.10,2013-08-25 00:08:00,
2013-08-24 20:23:00,64.0,58.0,30.34,South,178,0.0,-999.0,80,-99.99,,,0.00,0,weatherlink.com 1.10,2013-08-25 00:23:00,
2013-08-24 20:38:00,62.9,57.0,30.35,South,178,0.0,-999.0,82,-99.99,,,0.00,0,weatherlink.com 1.10,2013-08-25 00:38:00,
2013-08-24 20:52:00,61.7,57.0,30.35,South,178,0.0,-999.0,83,-99.99,,,0.00,0,weatherlink.com 1.10,2013-08-25 00:52:00,
2013-08-24 21:07:00,60.9,56.0,30.36,South,178,0.0,-999.0,85,-99.99,,,0.00,0,weatherlink.com 1.10,2013-08-25 01:07:00,
2013-08-24 21:22:00,60.2,56.0,30.36,South,178,0.0,-999.0,86,-99.99,,,0.00,0,weatherlink.com 1.10,2013-08-25 01:22:00,
2013-08-24 21:37:00,59.5,56.0,30.36,South,178,0.0,-999.0,87,-99.99,,,0.00,0,weatherlink.com 1.10,2013-08-25 01:37:00,
2013-08-24 21:53:00,58.8,55.0,30.36,South,178,0.0,-999.0,87,-99.99,,,0.00,0,weatherlink.com 1.10,2013-08-25 01:53:00,
2013-08-24 22:08:00,58.2,55.0,30.36,South,178,1.0,-999.0,88,-99.99,,,0.00,0,weatherlink.com 1.10,2013-08-25 02:08:00,
2013-08-24 22:23:00,58.0,55.0,30.37,South,178,0.0,-999.0,89,-99.99,,,0.00,0,weatherlink.com 1.10,2013-08-25 02:23:00,
2013-08-24 22:38:00,57.6,55.0,30.38,South,178,0.0,-999.0,90,-99.99,,,0.00,0,weatherlink.com 1.10,2013-08-25 02:38:00,
2013-08-24 22:53:00,57.3,55.0,30.38,South,178,0.0,-999.0,91,-99.99,,,0.00,0,weatherlink.com 1.10,2013-08-25 02:53:00,
2013-08-24 23:08:00,56.9,54.0,30.38,South,178,0.0,-999.0,91,-99.99,,,0.00,0,weatherlink.com 1.10,2013-08-25 03:08:00,
2013-08-24 23:23:00,56.4,54.0,30.37,South,178,0.0,-999.0,91,-99.99,,,0.00,0,weatherlink.com 1.10,2013-08-25 03:23:00,
2013-08-24 23:38:00,56.0,54.0,30.38,South,178,0.0,-999.0,92,-99.99,,,0.00,0,weatherlink.com 1.10,2013-08-25 03:38:00,
2013-08-24 23:53:00,55.7,54.0,30.39,South,178,0.0,-999.0,92,-99.99,,,0.00,0,weatherlink.com 1.10,2013-08-25 03:53:00,